Flag for Germany Weather past 2 weeks in Wedel, Schleswig-Holstein, Germany

Now
34 °F

Passing clouds.


Feels Like: 26 °F
Forecast: 30 / 38 °F
Wind: 10 mph from Southwest

Location: Hamburg-Fuhlsbuettel

Current Time: Feb 1, 2015 at 10:36:37 PM

Latest Report: Feb 1, 2015 at 9:50 PM


Visibility: N/A

Pressure: 29.24 "Hg

Humidity: 100%

Dew point: 34 °F

Location of WedelLocation

Historic Weather in Wedel — Graph

°F

Wedel temperature yesterday

Maximum temperature yesterday: 37 °F (at 1:50 PM)
Minimum temperature yesterday: 27 °F (at 11:50 PM)
Average temperature yesterday: 33 °F

Past Weeks' High & Low Weather Summary

 TemperatureHumidityPressure
High43 °F (Jan 26, 7:20 PM)100% (Jan 19, 1:20 AM)30.30 "Hg (Jan 19, 1:20 AM)
Low25 °F (Jan 21, 5:50 AM)71% (Jan 27, 3:20 PM)28.71 "Hg (Jan 30, 1:50 AM)
Average34 °F92%29.72 "Hg
* Reported Jan 17 9:20 PM — Feb 1 9:20 PM, Wedel, Weather by CustomWeather, © 2014

Note: Actual official high and low records may vary slightly from our data, if they occured in-between our weather recording intervals... More about our weather records

Advertising

Wedel weather history for previous 24 hours

 ConditionsComfort  
Time TempWeatherWind HumidityBarometerVisibility
9:20 PM
Feb 1
34 °FPassing clouds.9 mph100%29.24 "Hg5 mi
8:50 PM34 °FPassing clouds.12 mph100%29.24 "Hg5 mi
8:20 PM34 °FPassing clouds.9 mph100%29.24 "Hg5 mi
7:50 PM34 °FSnow flurries. Passing clouds.8 mph100%29.24 "Hg5 mi
7:20 PM34 °FSnow flurries. Passing clouds.8 mph100%29.24 "Hg4 mi
6:50 PM34 °FSnow flurries. Partly cloudy.9 mph100%29.21 "Hg4 mi
6:20 PM34 °FSnow flurries. Partly cloudy.9 mph93%29.21 "Hg3 mi
5:50 PM34 °FSnow flurries. Passing clouds.12 mph93%29.21 "Hg3 mi
5:20 PM34 °FPassing clouds.10 mph100%29.21 "Hg4 mi
4:50 PM34 °FBroken clouds.14 mph93%29.21 "Hg4 mi
4:20 PM34 °FBroken clouds.12 mph100%29.21 "Hg4 mi
3:50 PM34 °FPartly sunny.12 mph100%29.21 "Hg4 mi
3:20 PM34 °FPartly sunny.13 mph100%29.18 "Hg4 mi
2:50 PM34 °FPartly sunny.10 mph100%29.18 "Hg4 mi
2:20 PM34 °FFog.12 mph100%29.18 "Hg3 mi
1:50 PM34 °FLight snow. Partly sunny.10 mph100%29.18 "Hg3 mi
1:20 PM34 °FLight snow. Partly sunny.9 mph100%29.18 "Hg3 mi
12:50 PM34 °FLight snow. Partly sunny.7 mph93%29.18 "Hg1 mi
12:20 PM34 °FLight snow. Partly sunny.7 mph93%29.18 "Hg2 mi
11:50 AM34 °FSnow. Partly sunny.10 mph93%29.18 "Hg1 mi
11:20 AM34 °FFog.7 mph100%29.15 "Hg3 mi
10:50 AM34 °FFog.9 mph100%29.15 "Hg2 mi
10:20 AM34 °FFog.7 mph100%29.15 "Hg2 mi
9:50 AM34 °FFog.6 mph100%29.12 "Hg1 mi
9:20 AM32 °FIce fog.3 mph100%29.12 "Hg1 mi
8:50 AM32 °FIce fog.1 mph100%29.12 "Hg1 mi
8:20 AM30 °FIce fog.No wind100%29.12 "Hg1 mi
7:50 AM30 °FIce fog.2 mph100%29.12 "Hg1 mi
7:20 AM30 °FIce fog.3 mph100%29.09 "Hg1 mi
6:50 AM30 °FIce fog.3 mph100%29.09 "Hg1 mi
6:20 AM28 °FIce fog.1 mph100%29.09 "Hg2 mi
5:50 AM28 °FIce fog.1 mph100%29.09 "Hg2 mi
5:20 AM27 °FChilly.2 mph100%29.09 "Hg1 mi
4:50 AM27 °FChilly.2 mph100%29.06 "Hg1 mi
4:20 AM27 °FIce fog.1 mph100%29.06 "Hg1 mi
3:50 AM27 °FIce fog.1 mph100%29.06 "Hg2 mi
3:20 AM25 °FCold.2 mph100%29.06 "Hg3 mi
2:50 AM25 °FCold.No wind93%29.06 "Hg3 mi
2:20 AM27 °FChilly.1 mph100%29.06 "Hg4 mi
1:50 AM27 °FChilly.No wind93%29.06 "Hg4 mi
1:20 AM27 °FPassing clouds.No wind100%29.06 "Hg4 mi
12:50 AM27 °FPassing clouds.1 mph100%29.06 "Hg4 mi
12:20 AM27 °FPassing clouds.1 mph100%29.06 "Hg4 mi
11:50 PM
Jan 31
27 °FPassing clouds.3 mph93%29.03 "Hg4 mi
11:20 PM28 °FPassing clouds.2 mph100%29.03 "Hg4 mi
10:50 PM30 °FPassing clouds.2 mph93%29.03 "Hg5 mi
10:20 PM32 °FPassing clouds.2 mph93%29.03 "Hg5 mi
Weather by CustomWeather, © 2014

See weather overviewHow to use our weather pages